Spokane, WA
on Wednesday, December 12, 2012

Wednesday
Previous Day Next Day
Daily Summary
 ActualAverageRecord
Temperature
Mean Temperature °F 27°F  
Max Temperature 33°F 32°F 59°F (1921)
Min Temperature 28°F 22°F -15°F (1922)
Degree Days
Heating Degree Days 34 38  
Month to date heating degree days 348 439  
Since 1 July heating degree days 1733 2106  
Cooling Degree Days 0 0  
Month to date cooling degree days 0 0  
Year to date cooling degree days 535 450  
Moisture
Dew Point 32°F   
Average Humidity 96    
Maximum Humidity 100    
Minimum Humidity 92    
Precipitation
Precipitation 0.18 in 0.08 in 0.72 in (1888)
Month to date precipitation 1.10 0.97  
Year to date precipitation 19.84 15.23  
Snow
Snow 2.50 in 0.40 in 5.60 in (1971)
Month to date snowfall 3.1 5.1  
Since 1 July snowfall 9.0 12.6  
Snow Depth 1.00 in   
Wind
Wind Speed 5 mph   
Max Wind Speed 12 mph   
Max Gust Speed 14 mph   
Visibility 3 miles   
Events Fog , Snow   

Key: T is trace of precipitation, MM is missing value
Source: NWS Daily Summary
Time(PST)TemperatureDew PointHumidity Pressure Visibility Wind DirectionWind SpeedGust SpeedPrecipitationEvents Conditions
12:01 AM 33.8°F 33.8°F 100% 29.54 in 1.8 miles Calm Calm - 0.01 in Snow Light Snow
12:53 AM 33.1°F 33.1°F 100% 29.59 in 2.0 miles Calm Calm - 0.04 in Snow Light Snow
1:53 AM 33.1°F 32.0°F 96% 29.59 in 2.0 miles SSE 3.5 mph - 0.03 in Snow Light Snow
2:12 AM 33.8°F 32.0°F 93% 29.55 in 1.0 miles SSE 4.6 mph - 0.00 in Snow Light Snow
2:53 AM 33.1°F 32.0°F 96% 29.59 in 1.0 miles SSE 4.6 mph - 0.02 in Snow Light Snow
3:53 AM 32.0°F 32.0°F 100% 29.60 in 1.0 miles South 3.5 mph - 0.01 in Snow Light Snow
4:30 AM 32.0°F 32.0°F 100% 29.56 in 1.0 miles South 4.6 mph - 0.00 in Snow Light Snow
4:53 AM 33.1°F 33.1°F 100% 29.60 in 1.5 miles Calm Calm - 0.00 in Snow Light Snow
5:53 AM 33.1°F 33.1°F 100% 29.62 in 1.5 miles Calm Calm - 0.00 in   Overcast
5:58 AM 33.8°F 33.8°F 100% 29.58 in 3.0 miles Calm Calm - N/A   Overcast
6:28 AM 33.8°F 33.8°F 100% 29.59 in 1.0 miles Calm Calm - N/A   Overcast
6:53 AM 33.1°F 33.1°F 100% 29.65 in 0.8 miles Calm Calm - 0.00 in Snow Light Snow
7:18 AM 33.8°F 33.8°F 100% 29.61 in 1.5 miles Calm Calm - 0.00 in   Overcast
7:27 AM 33.8°F 33.8°F 100% 29.62 in 0.8 miles Calm Calm - 0.00 in   Light Drizzle
7:53 AM 32.0°F 32.0°F 100% 29.68 in 0.5 miles SW 3.5 mph - 0.01 in Fog Drizzle
8:31 AM 33.8°F 33.8°F 100% 29.65 in 0.5 miles SW 4.6 mph - 0.00 in   Overcast
8:53 AM 33.1°F 33.1°F 100% 29.70 in 0.5 miles SW 4.6 mph - 0.00 in   Overcast
9:14 AM 33.8°F 33.8°F 100% 29.67 in 0.5 miles SW 3.5 mph - N/A   Overcast
9:36 AM 33.8°F 33.8°F 100% 29.67 in 1.0 miles SSW 4.6 mph - N/A   Overcast
9:53 AM 33.1°F 33.1°F 100% 29.73 in 1.0 miles SW 4.6 mph - N/A   Overcast
10:53 AM 33.1°F 33.1°F 100% 29.75 in 1.0 miles SW 5.8 mph - 0.00 in   Light Drizzle
11:39 AM 33.8°F 32.0°F 93% 29.71 in 3.0 miles SW 10.4 mph - 0.00 in   Overcast
11:53 AM 33.1°F 32.0°F 96% 29.77 in 3.0 miles WSW 10.4 mph - 0.00 in   Overcast
12:42 PM 33.8°F 32.0°F 93% 29.72 in 2.0 miles SW 10.4 mph - 0.00 in Snow Light Snow
12:43 PM 33.8°F 32.0°F 93% 29.73 in 1.5 miles SW 9.2 mph - 0.00 in Snow Light Snow
12:53 PM 33.1°F 32.0°F 96% 29.78 in 1.0 miles SW 9.2 mph - 0.00 in Snow Light Snow
1:41 PM 33.8°F 32.0°F 93% 29.74 in 0.8 miles SW 9.2 mph - 0.01 in Snow Light Snow
1:53 PM 32.0°F 32.0°F 100% 29.80 in 0.8 miles SW 8.1 mph - 0.02 in Snow Light Snow
2:24 PM 32.0°F 32.0°F 100% 29.76 in 0.8 miles WSW 4.6 mph - 0.02 in Snow Light Snow
2:34 PM 32.0°F 32.0°F 100% 29.77 in 0.8 miles WSW 4.6 mph - 0.03 in Snow Light Snow
2:53 PM 32.0°F 32.0°F 100% 29.83 in 0.8 miles SW 3.5 mph - 0.03 in Snow Light Snow
3:37 PM 32.0°F 32.0°F 100% 29.79 in 1.0 miles SW 5.8 mph - 0.01 in Snow Light Snow
3:53 PM 32.0°F 32.0°F 100% 29.79 in 1.0 miles SSW 5.8 mph - N/A Snow Light Snow
4:53 PM 32.0°F 32.0°F 100% 29.87 in 1.0 miles SW 6.9 mph - 0.01 in Snow Light Snow
5:07 PM 32.0°F 32.0°F 100% 29.82 in 3.0 miles SSW 6.9 mph - 0.00 in Snow Light Snow
5:53 PM 32.0°F 30.9°F 96% 29.88 in 5.0 miles SSW 5.8 mph - 0.00 in   Overcast
6:38 PM 30.2°F 30.2°F 100% 29.84 in 7.0 miles WSW 5.8 mph - 0.00 in Snow Light Snow
6:53 PM 30.9°F 30.9°F 100% 29.90 in 7.0 miles SW 5.8 mph - 0.00 in Snow Light Snow
7:01 PM 32.0°F 30.2°F 93% 29.85 in 7.0 miles SW 5.8 mph - 0.00 in Snow Light Snow
7:53 PM 32.0°F 30.9°F 96% 29.91 in 10.0 miles SW 6.9 mph - 0.00 in   Overcast
8:53 PM 32.0°F 30.9°F 96% 29.93 in 8.0 miles SW 6.9 mph - N/A   Overcast
9:53 PM 30.9°F 30.9°F 100% 29.96 in 7.0 miles WSW 5.8 mph - N/A   Overcast
10:07 PM 30.2°F 30.2°F 100% 29.91 in 10.0 miles West 4.6 mph - N/A   Overcast
10:53 PM 30.9°F 30.0°F 96% 29.98 in 7.0 miles WSW 4.6 mph - N/A   Overcast
11:53 PM 28.9°F 28.0°F 96% 29.99 in 10.0 miles West 3.5 mph - N/A   Overcast
Moon Phase
Dec. 12 Dec. 13 Dec. 20 Dec. 28 Jan. 04
Sunrise:07:29 AM (PST) Moon Rise:06:37 AM (PST)12/12
Sunset:03:58 PM (PST) Moon Set:03:41 PM (PST)12/12

Copyright © 2014 The Weather Underground, Inc.